START_TIME,STEP,MOV.,AL01,t_acc.,AL02,t_acc.,E37,t_acc.,H21,t_acc.
1981-08-30 03:00:34.870 ,2,1,0.,24.0,0.,24.0,0.,24.0,0.,24.0
1981-08-30 03:00:58.870 ,3,1,0.,24.0,0.,24.0,1.,24.0,0.,24.0
1981-08-30 03:01:22.870 ,3,0,0.,24.0,0.,24.0,1.,24.0,0.,24.0
1981-08-30 03:01:46.870 ,4,1,0.,24.0,0.,24.0,1.,24.0,0.,24.0
1981-08-30 03:02:10.870 ,4,0,0.,24.0,0.,24.0,0.,24.0,0.,24.0
1981-08-30 03:02:34.870 ,5,1,0.,24.0,0.,24.0,0.,24.0,0.,24.0
1981-08-30 03:02:58.870 ,5,0,0.,24.0,0.,24.0,2.,24.0,0.,24.0
1981-08-30 03:03:22.870 ,6,1,0.,24.0,0.,24.0,0.,24.0,0.,24.0
1981-08-30 03:03:46.870 ,6,0,0.,24.0,0.,24.0,0.,24.0,0.,24.0
1981-08-30 03:04:10.870 ,7,1,2.,24.0,0.,24.0,1.,24.0,0.,24.0
1981-08-30 03:04:34.870 ,7,0,42.,24.0,0.,24.0,0.,24.0,0.,24.0
1981-08-30 03:04:58.870 ,7,1,24.,24.0,0.,24.0,0.,24.0,0.,24.0
1981-08-30 03:05:22.870 ,7,0,36.,24.0,0.,24.0,0.,24.0,0.,24.0
1981-08-30 03:05:46.870 ,6,1,16.,24.0,1.,24.0,0.,24.0,0.,24.0
1981-08-30 03:06:10.870 ,6,0,0.,24.0,0.,24.0,0.,24.0,0.,24.0
1981-08-30 03:06:34.870 ,5,1,0.,24.0,0.,24.0,0.,24.0,0.,24.0
1981-08-30 03:06:58.870 ,5,0,0.,24.0,0.,24.0,0.,24.0,0.,24.0
1981-08-30 03:07:22.870 ,4,1,0.,24.0,0.,24.0,0.,24.0,0.,24.0
1981-08-30 03:07:46.870 ,4,0,0.,24.0,0.,24.0,2.,24.0,0.,24.0
1981-08-30 03:08:10.870 ,3,1,0.,24.0,0.,24.0,1.,24.0,0.,24.0
1981-08-30 03:08:34.870 ,3,0,1.,24.0,0.,24.0,1.,24.0,0.,24.0
1981-08-30 03:08:58.870 ,2,1,0.,24.0,0.,24.0,1.,24.0,0.,24.0
1981-08-30 03:09:22.870 ,2,0,0.,24.0,0.,24.0,1.,24.0,0.,24.0
1981-08-30 03:09:46.870 ,1,1,0.,24.0,0.,24.0,0.,24.0,0.,24.0
1981-08-30 03:10:10.870 ,1,0,1.,24.0,0.,24.0,0.,24.0,0.,24.0
1981-08-30 03:10:34.870 ,0,1,0.,24.0,0.,24.0,0.,24.0,0.,24.0
1981-08-30 03:10:58.870 ,0,0,0.,24.0,0.,24.0,0.,24.0,0.,24.0
1981-08-30 03:11:22.870 ,0,1,0.,24.0,0.,24.0,2.,24.0,0.,24.0
1981-08-30 03:11:46.870 ,0,0,0.,24.0,0.,24.0,1.,24.0,0.,24.0
1981-08-30 03:12:10.870 ,1,1,1.,24.0,0.,24.0,0.,24.0,0.,24.0
1981-08-30 03:12:34.870 ,1,0,0.,24.0,0.,24.0,0.,24.0,0.,24.0
1981-08-30 03:12:58.870 ,2,1,0.,24.0,0.,24.0,0.,24.0,0.,24.0
1981-08-30 03:13:22.870 ,2,0,0.,24.0,0.,24.0,1.,24.0,0.,24.0
1981-08-30 03:13:46.870 ,3,1,0.,24.0,0.,24.0,0.,24.0,0.,24.0
1981-08-30 03:14:10.870 ,4,1,0.,24.0,0.,24.0,0.,24.0,0.,24.0
1981-08-30 03:14:34.870 ,5,1,0.,24.0,0.,24.0,0.,24.0,0.,24.0
1981-08-30 03:14:58.870 ,6,1,0.,24.0,0.,24.0,0.,24.0,0.,24.0
1981-08-30 03:15:22.870 ,7,1,9.,24.0,0.,24.0,1.,24.0,0.,24.0
1981-08-30 03:15:46.870 ,7,1,30.,24.0,0.,24.0,0.,24.0,0.,24.0
1981-08-30 03:16:10.870 ,6,1,34.,24.0,0.,24.0,0.,24.0,0.,24.0
1981-08-30 03:16:34.870 ,5,1,0.,24.0,0.,24.0,1.,24.0,0.,24.0
1981-08-30 03:16:58.870 ,4,1,0.,24.0,0.,24.0,0.,24.0,0.,24.0
1981-08-30 03:17:22.870 ,3,1,0.,24.0,0.,24.0,0.,24.0,0.,24.0
1981-08-30 03:17:46.870 ,2,1,0.,24.0,0.,24.0,1.,24.0,0.,24.0
1981-08-30 03:18:10.870 ,1,1,0.,24.0,0.,24.0,0.,24.0,0.,24.0
1981-08-30 03:18:34.870 ,0,1,0.,24.0,0.,24.0,0.,24.0,0.,24.0
1981-08-30 03:18:58.870 ,0,1,0.,24.0,0.,24.0,0.,24.0,0.,24.0
1981-08-30 03:19:22.870 ,1,1,0.,24.0,0.,24.0,1.,24.0,0.,24.0
1981-08-30 03:19:46.870 ,2,1,0.,24.0,1.,24.0,0.,24.0,0.,24.0
1981-08-30 03:20:10.870 ,3,1,0.,24.0,0.,24.0,0.,24.0,0.,24.0
1981-08-30 03:20:34.870 ,3,0,0.,24.0,0.,24.0,2.,24.0,0.,24.0
1981-08-30 03:20:58.870 ,4,1,0.,24.0,0.,24.0,0.,24.0,0.,24.0
1981-08-30 03:21:22.870 ,4,0,0.,24.0,0.,24.0,0.,24.0,0.,24.0
1981-08-30 03:21:46.870 ,5,1,0.,24.0,0.,24.0,0.,24.0,0.,24.0
1981-08-30 03:22:10.870 ,5,0,1.,24.0,0.,24.0,0.,24.0,0.,24.0
1981-08-30 03:22:34.870 ,6,1,0.,24.0,0.,24.0,0.,24.0,0.,24.0
1981-08-30 03:22:58.870 ,6,0,0.,24.0,0.,24.0,0.,24.0,0.,24.0
1981-08-30 03:23:22.870 ,7,1,4.,24.0,0.,24.0,0.,24.0,0.,24.0
1981-08-30 03:23:46.870 ,7,0,27.,24.0,1.,24.0,0.,24.0,0.,24.0
1981-08-30 03:24:10.870 ,7,1,28.,24.0,0.,24.0,0.,24.0,0.,24.0
1981-08-30 03:24:34.870 ,7,0,37.,24.0,0.,24.0,0.,24.0,0.,24.0
1981-08-30 03:24:58.870 ,6,1,22.,24.0,0.,24.0,1.,24.0,0.,24.0
1981-08-30 03:25:22.870 ,6,0,0.,24.0,1.,24.0,0.,24.0,0.,24.0
1981-08-30 03:25:46.870 ,5,1,0.,24.0,0.,24.0,1.,24.0,0.,24.0
1981-08-30 03:26:10.870 ,5,0,0.,24.0,0.,24.0,0.,24.0,0.,24.0
1981-08-30 03:26:34.870 ,4,1,0.,24.0,0.,24.0,1.,24.0,0.,24.0
1981-08-30 03:26:58.870 ,4,0,0.,24.0,0.,24.0,1.,24.0,0.,24.0
1981-08-30 03:27:22.870 ,3,1,0.,24.0,0.,24.0,0.,24.0,0.,24.0
1981-08-30 03:27:46.870 ,3,0,0.,24.0,0.,24.0,0.,24.0,0.,24.0
1981-08-30 03:28:10.870 ,2,1,0.,24.0,0.,24.0,0.,24.0,0.,24.0
1981-08-30 03:28:34.870 ,2,0,0.,24.0,0.,24.0,0.,24.0,0.,24.0
1981-08-30 03:28:58.870 ,1,1,0.,24.0,0.,24.0,0.,24.0,0.,24.0
1981-08-30 03:29:22.870 ,1,0,0.,24.0,0.,24.0,0.,24.0,0.,24.0
1981-08-30 03:29:46.870 ,0,1,0.,24.0,0.,24.0,1.,24.0,0.,24.0
1981-08-30 03:30:10.870 ,0,0,0.,24.0,0.,24.0,0.,24.0,0.,24.0
1981-08-30 03:30:34.870 ,0,1,0.,24.0,0.,24.0,1.,24.0,0.,24.0
1981-08-30 03:30:58.870 ,0,0,0.,24.0,0.,24.0,0.,24.0,0.,24.0
1981-08-30 03:31:22.870 ,1,1,0.,24.0,1.,24.0,0.,24.0,0.,24.0
1981-08-30 03:31:46.870 ,1,0,0.,24.0,0.,24.0,0.,24.0,0.,24.0
1981-08-30 03:32:10.870 ,2,1,0.,24.0,0.,24.0,0.,24.0,0.,24.0
1981-08-30 03:32:34.870 ,2,0,0.,24.0,0.,24.0,0.,24.0,0.,24.0
1981-08-30 03:32:58.870 ,3,1,0.,24.0,0.,24.0,1.,24.0,0.,24.0
1981-08-30 03:33:22.870 ,4,1,0.,24.0,0.,24.0,0.,24.0,0.,24.0
1981-08-30 03:33:46.870 ,5,1,0.,24.0,0.,24.0,0.,24.0,0.,24.0
1981-08-30 03:34:10.870 ,6,1,0.,24.0,0.,24.0,2.,24.0,0.,24.0
1981-08-30 03:34:34.870 ,7,1,3.,24.0,0.,24.0,0.,24.0,0.,24.0
1981-08-30 03:34:58.870 ,7,1,23.,24.0,0.,24.0,0.,24.0,0.,24.0
1981-08-30 03:35:22.870 ,6,1,26.,24.0,0.,24.0,0.,24.0,0.,24.0
1981-08-30 03:35:46.870 ,5,1,0.,24.0,0.,24.0,0.,24.0,0.,24.0
1981-08-30 03:36:10.870 ,4,1,0.,24.0,0.,24.0,0.,24.0,0.,24.0
1981-08-30 03:36:34.870 ,3,1,0.,24.0,0.,24.0,0.,24.0,0.,24.0
1981-08-30 03:36:58.870 ,2,1,0.,24.0,0.,24.0,0.,24.0,0.,24.0
1981-08-30 03:37:22.870 ,0,0,0.,24.0,0.,24.0,1.,24.0,0.,24.0
1981-08-30 03:37:52.270 ,0,0,0.,24.0,0.,24.0,0.,24.0,0.,24.0
1981-08-30 03:38:10.870 ,0,1,0.,24.0,0.,24.0,0.,24.0,0.,24.0
1981-08-30 03:38:34.870 ,1,1,0.,24.0,0.,24.0,0.,24.0,0.,24.0
1981-08-30 03:38:58.870 ,2,1,0.,24.0,0.,24.0,0.,24.0,0.,24.0
1981-08-30 03:39:22.870 ,3,1,0.,24.0,0.,24.0,0.,24.0,0.,24.0
1981-08-30 03:39:46.870 ,3,0,0.,24.0,0.,24.0,0.,24.0,0.,24.0
1981-08-30 03:40:10.870 ,4,1,0.,24.0,0.,24.0,0.,24.0,0.,24.0
1981-08-30 03:40:34.870 ,4,0,0.,24.0,0.,24.0,0.,24.0,0.,24.0
1981-08-30 03:40:58.870 ,5,1,0.,24.0,1.,24.0,0.,24.0,0.,24.0
1981-08-30 03:41:22.870 ,5,0,0.,24.0,0.,24.0,0.,24.0,0.,24.0
1981-08-30 03:41:46.870 ,6,1,0.,24.0,0.,24.0,0.,24.0,0.,24.0
1981-08-30 03:42:10.870 ,6,0,0.,24.0,0.,24.0,0.,24.0,0.,24.0
1981-08-30 03:42:34.870 ,7,1,7.,24.0,0.,24.0,0.,24.0,0.,24.0
1981-08-30 03:42:58.870 ,7,0,27.,24.0,0.,24.0,1.,24.0,0.,24.0
1981-08-30 03:43:22.860 ,7,1,28.,24.0,0.,24.0,0.,24.0,0.,24.0
1981-08-30 03:43:46.860 ,7,0,40.,24.0,0.,24.0,0.,24.0,0.,24.0
1981-08-30 03:44:10.860 ,6,1,21.,24.0,0.,24.0,1.,24.0,0.,24.0
1981-08-30 03:44:34.860 ,6,0,0.,24.0,0.,24.0,1.,24.0,0.,24.0
1981-08-30 03:44:58.860 ,5,1,0.,24.0,0.,24.0,0.,24.0,0.,24.0
1981-08-30 03:45:22.860 ,5,0,0.,24.0,0.,24.0,1.,24.0,0.,24.0
1981-08-30 03:45:46.860 ,4,1,0.,24.0,0.,24.0,0.,24.0,0.,24.0
1981-08-30 03:46:10.860 ,4,0,0.,24.0,0.,24.0,0.,24.0,0.,24.0
1981-08-30 03:46:34.860 ,3,1,0.,24.0,0.,24.0,0.,24.0,0.,24.0
1981-08-30 03:46:58.860 ,3,0,0.,24.0,0.,24.0,0.,24.0,0.,24.0
1981-08-30 03:47:22.860 ,2,1,0.,24.0,0.,24.0,0.,24.0,0.,24.0
1981-08-30 03:47:46.860 ,2,0,0.,24.0,0.,24.0,2.,24.0,0.,24.0
1981-08-30 03:48:10.860 ,1,1,0.,24.0,0.,24.0,0.,24.0,0.,24.0
1981-08-30 03:48:34.860 ,1,0,0.,24.0,0.,24.0,0.,24.0,0.,24.0
1981-08-30 03:48:58.860 ,0,1,0.,24.0,0.,24.0,0.,24.0,0.,24.0
1981-08-30 03:49:22.860 ,0,0,0.,24.0,0.,24.0,1.,24.0,0.,24.0
1981-08-30 03:49:46.860 ,0,1,0.,24.0,0.,24.0,0.,24.0,0.,24.0
1981-08-30 03:50:10.860 ,0,0,0.,24.0,0.,24.0,0.,24.0,0.,24.0
1981-08-30 03:50:34.860 ,1,1,0.,24.0,0.,24.0,0.,24.0,0.,24.0
1981-08-30 03:50:58.860 ,1,0,0.,24.0,0.,24.0,0.,24.0,0.,24.0
1981-08-30 03:51:22.860 ,2,1,0.,24.0,0.,24.0,0.,24.0,0.,24.0
1981-08-30 03:51:46.860 ,2,0,0.,24.0,0.,24.0,1.,24.0,0.,24.0
1981-08-30 03:52:10.860 ,3,1,0.,24.0,0.,24.0,0.,24.0,0.,24.0
1981-08-30 03:52:34.860 ,4,1,0.,24.0,0.,24.0,0.,24.0,0.,24.0
1981-08-30 03:52:58.860 ,5,1,0.,24.0,0.,24.0,2.,24.0,0.,24.0
1981-08-30 03:53:22.860 ,6,1,0.,24.0,0.,24.0,0.,24.0,0.,24.0
1981-08-30 03:53:46.860 ,7,1,4.,24.0,0.,24.0,0.,24.0,0.,24.0
1981-08-30 03:54:10.860 ,7,1,39.,24.0,0.,24.0,0.,24.0,0.,24.0
1981-08-30 03:54:34.860 ,6,1,23.,24.0,0.,24.0,1.,24.0,0.,24.0
1981-08-30 03:54:58.860 ,5,1,0.,24.0,0.,24.0,0.,24.0,0.,24.0
1981-08-30 03:55:22.860 ,4,1,0.,24.0,0.,24.0,1.,24.0,0.,24.0
1981-08-30 03:55:46.860 ,3,1,0.,24.0,0.,24.0,0.,24.0,0.,24.0
1981-08-30 03:56:10.860 ,2,1,0.,24.0,0.,24.0,0.,24.0,0.,24.0
1981-08-30 03:56:34.860 ,1,1,0.,24.0,0.,24.0,0.,24.0,0.,24.0
1981-08-30 03:56:58.860 ,0,1,0.,24.0,0.,24.0,0.,24.0,0.,24.0
1981-08-30 03:57:22.860 ,0,1,0.,24.0,0.,24.0,1.,24.0,0.,24.0
1981-08-30 03:57:46.860 ,1,1,0.,24.0,0.,24.0,0.,24.0,0.,24.0
1981-08-30 03:58:10.860 ,2,1,0.,24.0,0.,24.0,0.,24.0,0.,24.0
1981-08-30 03:58:34.860 ,3,1,0.,24.0,0.,24.0,0.,24.0,0.,24.0
1981-08-30 03:58:58.860 ,3,0,0.,24.0,0.,24.0,1.,24.0,0.,24.0
1981-08-30 03:59:22.860 ,4,1,1.,24.0,0.,24.0,1.,24.0,0.,24.0
1981-08-30 03:59:46.860 ,4,0,0.,24.0,0.,24.0,0.,24.0,0.,24.0
1981-08-30 04:00:10.860 ,5,1,0.,24.0,0.,24.0,2.,24.0,0.,24.0
1981-08-30 04:00:34.860 ,5,0,1.,24.0,0.,24.0,1.,24.0,0.,24.0
1981-08-30 04:00:58.860 ,6,1,0.,24.0,0.,24.0,0.,24.0,0.,24.0
1981-08-30 04:01:22.860 ,6,0,0.,24.0,0.,24.0,0.,24.0,0.,24.0
1981-08-30 04:01:46.860 ,7,1,6.,24.0,0.,24.0,0.,24.0,0.,24.0
1981-08-30 04:02:10.860 ,7,0,31.,24.0,0.,24.0,1.,24.0,0.,24.0
1981-08-30 04:02:34.860 ,7,1,29.,24.0,0.,24.0,0.,24.0,0.,24.0
1981-08-30 04:02:58.860 ,7,0,34.,24.0,0.,24.0,0.,24.0,0.,24.0
1981-08-30 04:03:22.860 ,6,1,20.,24.0,0.,24.0,0.,24.0,0.,24.0
1981-08-30 04:03:46.860 ,6,0,0.,24.0,0.,24.0,2.,24.0,0.,24.0
1981-08-30 04:04:10.860 ,5,1,0.,24.0,0.,24.0,1.,24.0,0.,24.0
1981-08-30 04:04:34.860 ,5,0,0.,24.0,0.,24.0,0.,24.0,0.,24.0
1981-08-30 04:04:58.860 ,4,1,0.,24.0,0.,24.0,0.,24.0,0.,24.0
1981-08-30 04:05:22.860 ,4,0,0.,24.0,0.,24.0,1.,24.0,0.,24.0
1981-08-30 04:05:46.860 ,3,1,1.,24.0,0.,24.0,0.,24.0,0.,24.0
1981-08-30 04:06:10.860 ,3,0,0.,24.0,0.,24.0,0.,24.0,0.,24.0
1981-08-30 04:06:34.860 ,2,1,0.,24.0,0.,24.0,0.,24.0,0.,24.0
1981-08-30 04:06:58.860 ,2,0,0.,24.0,0.,24.0,0.,24.0,0.,24.0
1981-08-30 04:07:22.860 ,1,1,0.,24.0,0.,24.0,0.,24.0,0.,24.0
1981-08-30 04:07:46.860 ,1,0,0.,24.0,0.,24.0,0.,24.0,0.,24.0
1981-08-30 04:08:10.860 ,0,1,0.,24.0,0.,24.0,0.,24.0,0.,24.0
1981-08-30 04:08:34.860 ,0,0,0.,24.0,0.,24.0,0.,24.0,0.,24.0
1981-08-30 04:08:58.860 ,0,1,0.,24.0,0.,24.0,0.,24.0,0.,24.0
1981-08-30 04:09:22.860 ,0,0,0.,24.0,0.,24.0,1.,24.0,0.,24.0
1981-08-30 04:09:46.860 ,1,1,0.,24.0,0.,24.0,0.,24.0,0.,24.0
1981-08-30 04:10:10.860 ,1,0,0.,24.0,0.,24.0,0.,24.0,0.,24.0
1981-08-30 04:10:34.860 ,2,1,0.,24.0,0.,24.0,0.,24.0,0.,24.0
1981-08-30 04:10:58.860 ,2,0,0.,24.0,0.,24.0,1.,24.0,0.,24.0
1981-08-30 04:11:22.860 ,3,1,0.,24.0,0.,24.0,0.,24.0,0.,24.0
1981-08-30 04:11:46.860 ,4,1,0.,24.0,0.,24.0,0.,24.0,0.,24.0
1981-08-30 04:12:10.860 ,5,1,0.,24.0,0.,24.0,0.,24.0,0.,24.0
1981-08-30 04:12:34.860 ,6,1,0.,24.0,0.,24.0,0.,24.0,0.,24.0
1981-08-30 04:12:58.860 ,7,1,2.,24.0,0.,24.0,0.,24.0,0.,24.0
1981-08-30 04:13:22.860 ,7,1,32.,24.0,0.,24.0,0.,24.0,0.,24.0
1981-08-30 04:13:46.860 ,6,1,23.,24.0,0.,24.0,0.,24.0,0.,24.0
1981-08-30 04:14:10.860 ,5,1,0.,24.0,0.,24.0,1.,24.0,0.,24.0
1981-08-30 04:14:34.860 ,4,1,0.,24.0,0.,24.0,0.,24.0,0.,24.0
1981-08-30 04:14:58.860 ,3,1,0.,24.0,0.,24.0,1.,24.0,0.,24.0
1981-08-30 04:15:22.860 ,2,1,0.,24.0,0.,24.0,0.,24.0,0.,24.0
1981-08-30 04:15:46.860 ,1,1,0.,24.0,0.,24.0,0.,24.0,0.,24.0
1981-08-30 04:16:10.860 ,0,1,0.,24.0,0.,24.0,0.,24.0,0.,24.0
1981-08-30 04:16:34.860 ,0,1,0.,24.0,0.,24.0,1.,24.0,0.,24.0
1981-08-30 04:16:58.860 ,1,1,0.,24.0,0.,24.0,0.,24.0,0.,24.0
1981-08-30 04:17:22.860 ,2,1,1.,24.0,0.,24.0,0.,24.0,0.,24.0
1981-08-30 04:17:46.860 ,3,1,0.,24.0,0.,24.0,0.,24.0,0.,24.0
1981-08-30 04:18:10.860 ,3,0,0.,24.0,0.,24.0,0.,24.0,0.,24.0
1981-08-30 04:18:34.860 ,4,1,0.,24.0,0.,24.0,0.,24.0,0.,24.0
1981-08-30 04:18:58.860 ,4,0,0.,24.0,1.,24.0,1.,24.0,0.,24.0
1981-08-30 04:19:22.860 ,5,1,0.,24.0,0.,24.0,0.,24.0,0.,24.0
1981-08-30 04:19:46.860 ,5,0,0.,24.0,0.,24.0,0.,24.0,0.,24.0
1981-08-30 04:20:10.860 ,6,1,0.,24.0,0.,24.0,0.,24.0,0.,24.0
1981-08-30 04:20:34.860 ,6,0,0.,24.0,0.,24.0,0.,24.0,0.,24.0
1981-08-30 04:20:58.860 ,7,1,4.,24.0,0.,24.0,0.,24.0,0.,24.0
1981-08-30 04:21:22.860 ,7,0,27.,24.0,0.,24.0,1.,24.0,0.,24.0
1981-08-30 04:21:46.860 ,7,1,37.,24.0,0.,24.0,1.,24.0,0.,24.0
1981-08-30 04:22:10.860 ,7,0,30.,24.0,0.,24.0,0.,24.0,0.,24.0
1981-08-30 04:22:34.860 ,6,1,12.,24.0,0.,24.0,1.,24.0,0.,24.0
1981-08-30 04:22:58.860 ,6,0,0.,24.0,0.,24.0,0.,24.0,0.,24.0
1981-08-30 04:23:22.860 ,5,1,0.,24.0,0.,24.0,1.,24.0,0.,24.0
1981-08-30 04:23:46.860 ,5,0,0.,24.0,0.,24.0,1.,24.0,0.,24.0
1981-08-30 04:24:10.860 ,4,1,0.,24.0,0.,24.0,0.,24.0,0.,24.0
1981-08-30 04:24:34.860 ,4,0,0.,24.0,0.,24.0,0.,24.0,0.,24.0
1981-08-30 04:24:58.860 ,3,1,0.,24.0,0.,24.0,0.,24.0,0.,24.0
1981-08-30 04:25:22.860 ,3,0,0.,24.0,0.,24.0,0.,24.0,0.,24.0
1981-08-30 04:25:46.860 ,2,1,0.,24.0,0.,24.0,0.,24.0,0.,24.0
1981-08-30 04:26:10.860 ,2,0,0.,24.0,0.,24.0,1.,24.0,0.,24.0
1981-08-30 04:26:34.860 ,1,1,0.,24.0,0.,24.0,0.,24.0,0.,24.0
1981-08-30 04:26:58.860 ,1,0,0.,24.0,0.,24.0,1.,24.0,0.,24.0
1981-08-30 04:27:22.860 ,0,1,0.,24.0,0.,24.0,2.,24.0,0.,24.0
1981-08-30 04:27:46.860 ,0,0,0.,24.0,0.,24.0,0.,24.0,0.,24.0
1981-08-30 04:28:10.860 ,0,1,0.,24.0,0.,24.0,0.,24.0,0.,24.0
1981-08-30 04:28:34.860 ,0,0,0.,24.0,0.,24.0,0.,24.0,0.,24.0
1981-08-30 04:28:58.860 ,1,1,0.,24.0,0.,24.0,0.,24.0,0.,24.0
1981-08-30 04:29:22.860 ,1,0,0.,24.0,0.,24.0,0.,24.0,0.,24.0
1981-08-30 04:29:46.860 ,2,1,0.,24.0,0.,24.0,0.,24.0,0.,24.0
1981-08-30 04:30:10.860 ,2,0,0.,24.0,0.,24.0,0.,24.0,0.,24.0
1981-08-30 04:30:34.860 ,3,1,0.,24.0,0.,24.0,1.,24.0,0.,24.0
1981-08-30 04:30:58.860 ,4,1,0.,24.0,0.,24.0,0.,24.0,0.,24.0
1981-08-30 04:31:22.860 ,5,1,0.,24.0,0.,24.0,0.,24.0,0.,24.0
1981-08-30 04:31:46.860 ,6,1,0.,24.0,0.,24.0,0.,24.0,0.,24.0
1981-08-30 04:32:10.860 ,7,1,6.,24.0,0.,24.0,1.,24.0,0.,24.0
1981-08-30 04:32:34.860 ,7,1,40.,24.0,0.,24.0,0.,24.0,0.,24.0
1981-08-30 04:32:58.860 ,6,1,15.,24.0,0.,24.0,0.,24.0,0.,24.0
1981-08-30 04:33:22.860 ,5,1,0.,24.0,0.,24.0,0.,24.0,0.,24.0
1981-08-30 04:33:46.860 ,4,1,0.,24.0,0.,24.0,0.,24.0,0.,24.0
1981-08-30 04:34:10.860 ,3,1,1.,24.0,0.,24.0,0.,24.0,0.,24.0
1981-08-30 04:34:34.860 ,2,1,0.,24.0,0.,24.0,0.,24.0,0.,24.0
1981-08-30 04:34:58.860 ,1,1,0.,24.0,0.,24.0,0.,24.0,0.,24.0
1981-08-30 04:35:22.860 ,0,1,0.,24.0,0.,24.0,0.,24.0,0.,24.0
1981-08-30 04:35:46.860 ,0,1,0.,24.0,0.,24.0,1.,24.0,0.,24.0
1981-08-30 04:36:10.860 ,1,1,0.,24.0,0.,24.0,0.,24.0,0.,24.0
1981-08-30 04:36:34.860 ,2,1,0.,24.0,0.,24.0,0.,24.0,0.,24.0
1981-08-30 04:36:58.860 ,3,1,0.,24.0,0.,24.0,0.,24.0,0.,24.0
1981-08-30 04:37:22.860 ,3,0,0.,24.0,0.,24.0,0.,24.0,0.,24.0
1981-08-30 04:37:46.860 ,4,1,0.,24.0,1.,24.0,0.,24.0,0.,24.0
1981-08-30 04:38:10.860 ,4,0,1.,24.0,0.,24.0,0.,24.0,0.,24.0
1981-08-30 04:38:34.860 ,5,1,0.,24.0,0.,24.0,0.,24.0,0.,24.0
1981-08-30 04:38:58.860 ,5,0,0.,24.0,0.,24.0,0.,24.0,0.,24.0
1981-08-30 04:39:22.860 ,6,1,0.,24.0,0.,24.0,2.,24.0,0.,24.0
1981-08-30 04:39:46.860 ,6,0,0.,24.0,0.,24.0,0.,24.0,0.,24.0
1981-08-30 04:40:10.860 ,7,1,9.,24.0,0.,24.0,0.,24.0,0.,24.0
1981-08-30 04:40:34.860 ,7,0,30.,24.0,0.,24.0,0.,24.0,0.,24.0
1981-08-30 04:40:58.860 ,7,1,34.,24.0,0.,24.0,0.,24.0,0.,24.0
1981-08-30 04:41:22.860 ,7,0,30.,24.0,0.,24.0,1.,24.0,0.,24.0
1981-08-30 04:41:46.860 ,6,1,25.,24.0,0.,24.0,0.,24.0,0.,24.0
1981-08-30 04:42:10.860 ,6,0,0.,24.0,0.,24.0,0.,24.0,0.,24.0
1981-08-30 04:42:34.860 ,5,1,0.,24.0,0.,24.0,1.,24.0,0.,24.0
1981-08-30 04:42:58.860 ,5,0,0.,24.0,0.,24.0,1.,24.0,0.,24.0
1981-08-30 04:43:22.860 ,4,1,0.,24.0,0.,24.0,0.,24.0,0.,24.0
1981-08-30 04:43:46.860 ,4,0,0.,24.0,0.,24.0,1.,24.0,0.,24.0
1981-08-30 04:44:10.860 ,3,1,0.,24.0,0.,24.0,0.,24.0,0.,24.0
1981-08-30 04:44:34.860 ,3,0,0.,24.0,0.,24.0,2.,24.0,0.,24.0
1981-08-30 04:44:58.860 ,2,1,1.,24.0,0.,24.0,0.,24.0,0.,24.0
1981-08-30 04:45:22.860 ,2,0,0.,24.0,0.,24.0,0.,24.0,0.,24.0
1981-08-30 04:45:46.860 ,1,1,0.,24.0,0.,24.0,0.,24.0,0.,24.0
1981-08-30 04:46:10.860 ,1,0,0.,24.0,0.,24.0,0.,24.0,0.,24.0
1981-08-30 04:46:34.860 ,0,1,0.,24.0,0.,24.0,0.,24.0,0.,24.0
1981-08-30 04:46:58.860 ,0,0,1.,24.0,0.,24.0,1.,24.0,0.,24.0
1981-08-30 04:47:44.460 ,0,0,,0,,0,,0,,0
1981-08-30 04:47:46.860 ,0,0,0.,24.0,0.,24.0,0.,24.0,0.,24.0
1981-08-30 04:48:10.860 ,1,1,0.,24.0,0.,24.0,0.,24.0,0.,24.0
1981-08-30 04:48:34.860 ,1,0,0.,24.0,0.,24.0,0.,24.0,0.,24.0
1981-08-30 04:48:58.860 ,2,1,1.,24.0,0.,24.0,0.,24.0,0.,24.0
1981-08-30 04:49:22.860 ,2,0,0.,24.0,0.,24.0,0.,24.0,0.,24.0
1981-08-30 04:49:46.860 ,3,1,0.,24.0,0.,24.0,0.,24.0,0.,24.0
1981-08-30 04:50:10.860 ,4,1,0.,24.0,0.,24.0,0.,24.0,0.,24.0
1981-08-30 04:50:34.860 ,5,1,0.,24.0,0.,24.0,0.,24.0,0.,24.0
1981-08-30 04:50:58.860 ,6,1,0.,24.0,0.,24.0,0.,24.0,0.,24.0
1981-08-30 04:51:22.860 ,7,1,8.,24.0,0.,24.0,0.,24.0,0.,24.0
1981-08-30 04:51:46.860 ,7,1,21.,24.0,0.,24.0,0.,24.0,0.,24.0
1981-08-30 04:52:10.860 ,6,1,27.,24.0,0.,24.0,0.,24.0,0.,24.0
1981-08-30 04:52:34.860 ,5,1,0.,24.0,0.,24.0,0.,24.0,0.,24.0
1981-08-30 04:52:58.860 ,4,1,0.,24.0,0.,24.0,0.,24.0,0.,24.0
1981-08-30 04:53:22.860 ,3,1,0.,24.0,0.,24.0,0.,24.0,0.,24.0
1981-08-30 04:53:46.860 ,2,1,0.,24.0,0.,24.0,1.,24.0,0.,24.0
1981-08-30 04:54:10.860 ,1,1,0.,24.0,0.,24.0,1.,24.0,0.,24.0
1981-08-30 04:54:34.860 ,0,1,0.,24.0,0.,24.0,0.,24.0,0.,24.0
1981-08-30 04:54:58.860 ,0,1,0.,24.0,0.,24.0,0.,24.0,0.,24.0
1981-08-30 04:55:22.860 ,1,1,0.,24.0,0.,24.0,0.,24.0,0.,24.0
1981-08-30 04:55:46.860 ,2,1,0.,24.0,0.,24.0,0.,24.0,0.,24.0
1981-08-30 04:56:10.860 ,3,1,0.,24.0,0.,24.0,0.,24.0,0.,24.0
1981-08-30 04:56:34.860 ,0,0,0.,24.0,0.,24.0,1.,24.0,0.,24.0
1981-08-30 04:57:05.460 ,0,0,0.,24.0,0.,24.0,0.,24.0,0.,24.0
1981-08-30 04:57:22.860 ,0,0,0.,24.0,0.,24.0,0.,24.0,0.,24.0
1981-08-30 04:57:46.860 ,5,1,0.,24.0,0.,24.0,2.,24.0,0.,24.0
1981-08-30 04:58:10.860 ,5,0,0.,24.0,0.,24.0,1.,24.0,0.,24.0
1981-08-30 04:58:34.860 ,6,1,0.,24.0,0.,24.0,1.,24.0,0.,24.0
1981-08-30 04:58:58.860 ,6,0,0.,24.0,0.,24.0,0.,24.0,0.,24.0
1981-08-30 04:59:22.860 ,7,1,11.,24.0,0.,24.0,0.,24.0,0.,24.0
1981-08-30 04:59:46.860 ,7,0,42.,24.0,0.,24.0,0.,24.0,0.,24.0
1981-08-30 05:00:10.860 ,7,1,31.,24.0,0.,24.0,0.,24.0,0.,24.0
1981-08-30 05:00:34.860 ,7,0,27.,24.0,0.,24.0,0.,24.0,0.,24.0
1981-08-30 05:00:58.860 ,6,1,33.,24.0,0.,24.0,0.,24.0,0.,24.0
1981-08-30 05:01:22.860 ,6,0,0.,24.0,0.,24.0,0.,24.0,0.,24.0
1981-08-30 05:01:46.860 ,5,1,0.,24.0,0.,24.0,1.,24.0,0.,24.0
1981-08-30 05:02:10.860 ,5,0,0.,24.0,0.,24.0,0.,24.0,0.,24.0
1981-08-30 05:02:34.860 ,4,1,0.,24.0,0.,24.0,1.,24.0,0.,24.0
1981-08-30 05:02:58.860 ,4,0,0.,24.0,0.,24.0,0.,24.0,0.,24.0
1981-08-30 05:03:22.860 ,3,1,0.,24.0,0.,24.0,1.,24.0,0.,24.0
1981-08-30 05:03:46.860 ,3,0,0.,24.0,0.,24.0,1.,24.0,0.,24.0
1981-08-30 05:04:10.860 ,2,1,0.,24.0,0.,24.0,0.,24.0,0.,24.0
1981-08-30 05:04:34.860 ,2,0,0.,24.0,0.,24.0,0.,24.0,0.,24.0
1981-08-30 05:04:58.860 ,1,1,0.,24.0,0.,24.0,0.,24.0,0.,24.0
1981-08-30 05:05:22.860 ,1,0,0.,24.0,0.,24.0,0.,24.0,0.,24.0
1981-08-30 05:05:46.860 ,0,1,0.,24.0,0.,24.0,0.,24.0,0.,24.0
1981-08-30 05:06:10.860 ,0,0,0.,24.0,0.,24.0,0.,24.0,0.,24.0
1981-08-30 05:06:34.860 ,0,1,0.,24.0,0.,24.0,0.,24.0,0.,24.0
1981-08-30 05:06:58.860 ,0,0,0.,24.0,0.,24.0,1.,24.0,0.,24.0
1981-08-30 05:07:22.860 ,1,1,0.,24.0,0.,24.0,0.,24.0,0.,24.0
1981-08-30 05:07:46.860 ,1,0,0.,24.0,0.,24.0,0.,24.0,0.,24.0
1981-08-30 05:08:10.860 ,2,1,0.,24.0,0.,24.0,0.,24.0,0.,24.0
1981-08-30 05:08:34.860 ,2,0,0.,24.0,0.,24.0,1.,24.0,0.,24.0
1981-08-30 05:08:58.860 ,3,1,0.,24.0,0.,24.0,0.,24.0,0.,24.0
1981-08-30 05:09:22.860 ,4,1,0.,24.0,0.,24.0,0.,24.0,0.,24.0
1981-08-30 05:09:46.860 ,5,1,0.,24.0,0.,24.0,0.,24.0,0.,24.0
1981-08-30 05:10:10.860 ,6,1,0.,24.0,0.,24.0,0.,24.0,0.,24.0
1981-08-30 05:10:34.860 ,7,1,9.,24.0,0.,24.0,0.,24.0,0.,24.0
1981-08-30 05:10:58.860 ,7,1,23.,24.0,0.,24.0,0.,24.0,0.,24.0
1981-08-30 05:11:22.860 ,6,1,25.,24.0,0.,24.0,1.,24.0,0.,24.0
1981-08-30 05:11:46.860 ,5,1,0.,24.0,0.,24.0,0.,24.0,0.,24.0
1981-08-30 05:12:10.860 ,4,1,0.,24.0,0.,24.0,0.,24.0,0.,24.0
1981-08-30 05:12:34.860 ,3,1,0.,24.0,0.,24.0,1.,24.0,0.,24.0
1981-08-30 05:12:58.860 ,2,1,0.,24.0,0.,24.0,1.,24.0,0.,24.0
1981-08-30 05:13:22.860 ,1,1,0.,24.0,0.,24.0,1.,24.0,0.,24.0
1981-08-30 05:13:46.860 ,0,1,0.,24.0,0.,24.0,0.,24.0,0.,24.0
1981-08-30 05:14:10.860 ,0,1,0.,24.0,0.,24.0,0.,24.0,0.,24.0
1981-08-30 05:14:34.860 ,1,1,0.,24.0,0.,24.0,0.,24.0,0.,24.0
1981-08-30 05:14:58.860 ,2,1,0.,24.0,0.,24.0,0.,24.0,0.,24.0
1981-08-30 05:15:22.860 ,3,1,0.,24.0,0.,24.0,0.,24.0,0.,24.0
1981-08-30 05:15:46.860 ,3,0,0.,24.0,0.,24.0,0.,24.0,0.,24.0
1981-08-30 05:16:10.860 ,4,1,0.,24.0,0.,24.0,1.,24.0,0.,24.0
1981-08-30 05:16:34.860 ,4,0,0.,24.0,0.,24.0,0.,24.0,0.,24.0
1981-08-30 05:16:58.860 ,5,1,0.,24.0,0.,24.0,0.,24.0,0.,24.0
1981-08-30 05:17:22.860 ,5,0,0.,24.0,0.,24.0,1.,24.0,0.,24.0
1981-08-30 05:17:46.860 ,6,1,0.,24.0,0.,24.0,0.,24.0,0.,24.0
1981-08-30 05:18:10.860 ,6,0,0.,24.0,0.,24.0,1.,24.0,0.,24.0
1981-08-30 05:18:34.860 ,7,1,7.,24.0,0.,24.0,1.,24.0,0.,24.0
1981-08-30 05:18:58.860 ,7,0,31.,24.0,0.,24.0,1.,24.0,0.,24.0
1981-08-30 05:19:22.860 ,7,1,37.,24.0,0.,24.0,0.,24.0,0.,24.0
1981-08-30 05:19:46.860 ,7,0,30.,24.0,0.,24.0,0.,24.0,0.,24.0
1981-08-30 05:20:10.860 ,6,1,26.,24.0,0.,24.0,0.,24.0,0.,24.0
1981-08-30 05:20:34.860 ,6,0,0.,24.0,0.,24.0,0.,24.0,0.,24.0
1981-08-30 05:20:58.860 ,5,1,0.,24.0,0.,24.0,1.,24.0,0.,24.0
1981-08-30 05:21:22.860 ,5,0,0.,24.0,0.,24.0,1.,24.0,0.,24.0
1981-08-30 05:21:46.860 ,4,1,0.,24.0,0.,24.0,0.,24.0,0.,24.0
1981-08-30 05:22:10.860 ,4,0,0.,24.0,0.,24.0,0.,24.0,0.,24.0
1981-08-30 05:22:34.860 ,3,1,0.,24.0,0.,24.0,0.,24.0,0.,24.0
1981-08-30 05:22:58.860 ,3,0,0.,24.0,0.,24.0,0.,24.0,0.,24.0
1981-08-30 05:23:22.860 ,2,1,0.,24.0,0.,24.0,1.,24.0,0.,24.0
1981-08-30 05:23:46.860 ,2,0,0.,24.0,0.,24.0,2.,24.0,0.,24.0
1981-08-30 05:24:10.860 ,1,1,0.,24.0,0.,24.0,0.,24.0,0.,24.0
1981-08-30 05:24:34.860 ,1,0,0.,24.0,0.,24.0,0.,24.0,0.,24.0
1981-08-30 05:24:58.860 ,0,1,0.,24.0,0.,24.0,0.,24.0,0.,24.0
1981-08-30 05:25:22.860 ,0,0,0.,24.0,0.,24.0,0.,24.0,0.,24.0
1981-08-30 05:25:46.860 ,0,1,0.,24.0,0.,24.0,1.,24.0,0.,24.0
1981-08-30 05:26:10.860 ,0,0,0.,24.0,0.,24.0,0.,24.0,0.,24.0
1981-08-30 05:26:34.860 ,1,1,0.,24.0,0.,24.0,0.,24.0,0.,24.0
1981-08-30 05:26:58.860 ,1,0,0.,24.0,0.,24.0,0.,24.0,0.,24.0
1981-08-30 05:27:22.860 ,2,1,0.,24.0,0.,24.0,0.,24.0,0.,24.0
1981-08-30 05:27:46.860 ,2,0,0.,24.0,0.,24.0,0.,24.0,0.,24.0
1981-08-30 05:28:10.860 ,3,1,0.,24.0,0.,24.0,0.,24.0,0.,24.0
1981-08-30 05:28:34.860 ,4,1,0.,24.0,0.,24.0,0.,24.0,0.,24.0
1981-08-30 05:28:58.860 ,5,1,0.,24.0,0.,24.0,0.,24.0,0.,24.0
1981-08-30 05:29:22.860 ,6,1,0.,24.0,0.,24.0,0.,24.0,0.,24.0
1981-08-30 05:29:46.860 ,7,1,6.,24.0,0.,24.0,0.,24.0,0.,24.0
1981-08-30 05:30:10.860 ,7,1,33.,24.0,0.,24.0,0.,24.0,0.,24.0
1981-08-30 05:30:34.860 ,6,1,29.,24.0,0.,24.0,0.,24.0,0.,24.0
1981-08-30 05:30:58.860 ,5,1,0.,24.0,1.,24.0,0.,24.0,0.,24.0
1981-08-30 05:31:22.860 ,4,1,0.,24.0,0.,24.0,0.,24.0,0.,24.0
1981-08-30 05:31:46.860 ,3,1,0.,24.0,0.,24.0,0.,24.0,0.,24.0
1981-08-30 05:32:10.860 ,2,1,0.,24.0,0.,24.0,1.,24.0,0.,24.0
1981-08-30 05:32:34.860 ,1,1,0.,24.0,0.,24.0,0.,24.0,0.,24.0
1981-08-30 05:32:58.860 ,0,1,0.,24.0,0.,24.0,0.,24.0,0.,24.0
1981-08-30 05:33:22.860 ,0,1,0.,24.0,0.,24.0,0.,24.0,0.,24.0
1981-08-30 05:33:46.860 ,1,1,0.,24.0,0.,24.0,0.,24.0,0.,24.0
1981-08-30 05:34:10.860 ,2,1,0.,24.0,0.,24.0,0.,24.0,0.,24.0